Weather History for Pian Rosa, Italy

Change the Weather History Date:

Thursday, November 10, 2011

  Actual Average Record
Temperature  
Mean Temperature 26 °F -  
Max Temperature 29 °F 22 °F 32 °F (1998)
Min Temperature 21 °F 12 °F -4 °F (2007)
Degree Days  
Heating Degree Days 39    
Moisture  
Dew Point 2 °F    
Average Humidity 34    
Maximum Humidity 58    
Minimum Humidity 19    
Precipitation  
Precipitation 0.00 in - - ()
Sea Level Pressure  
Sea Level Pressure 30.22 in    
Wind  
Wind Speed 4 mph ()    
Max Wind Speed 6 mph    
Max Gust Speed -    
Visibility 12.0 miles    
Events      
Averages and records for this station are not official NWS values.
T = Trace of Precipitation, MM = Missing Value Source: Averaged Metar Reports

Daily Weather History Graph

Daily Weather History Graph

Search for Another Location

Airport:

Trip Planner

Search our weather history database for the weather conditions in past years. The results will help you decide how hot, cold, wet, or windy it might be!

Date:

Astronomy

Nov. 10, 2011 Rise Set
Actual Time 7:21 AM CET 5:03 PM CET
Civil Twilight 6:49 AM CET 5:35 PM CET
Nautical Twilight 6:13 AM CET 6:11 PM CET
Astronomical Twilight 5:38 AM CET 6:46 PM CET
Moon 4:38 PM CET (11/10) 7:00 AM CET (11/10)
Length of Visible Light 10h 46m
Length of Day
9h 42m
Full, 100% of the Moon is Illuminated
Nov 10
Full
Nov 10
Full
Nov 18
Last Quarter
Nov 25
New
Dec 2
First Quarter

Hourly Weather History & Observations

Time (CET) Temp. Windchill Dew Point Humidity Pressure Visibility Wind Dir Wind Speed Gust Speed Precip Events Conditions
12:55 AM 24.8 °F 19.1 °F 3.2 °F 40% 30.27 in - SW 4.6 mph - N/A   Clear
1:00 AM 24 °F - 3 °F 26%  in 12 mi SW 4.6 mph - -  
1:55 AM 24.8 °F 19.1 °F 3.2 °F 40% 30.27 in - East 4.6 mph - N/A   Clear
2:55 AM 24.8 °F 17.9 °F 1.4 °F 36% 30.27 in - East 5.8 mph - N/A   Clear
3:55 AM 24.8 °F 19.1 °F -0.4 °F 34% 30.24 in - East 4.6 mph - N/A   Clear
4:55 AM 24.8 °F 19.1 °F -0.4 °F 34% 30.24 in - East 4.6 mph - N/A   Clear
5:55 AM 24.8 °F 19.1 °F -0.4 °F 34% 30.24 in - East 4.6 mph - N/A   Clear
6:55 AM 24.8 °F 19.1 °F -0.4 °F 34% 30.24 in - SE 4.6 mph - N/A   Clear
7:00 AM 25 °F - -0 °F 19%  in 37 mi SE 4.6 mph - -  
8:55 AM 24.8 °F 19.1 °F -0.4 °F 34% 30.24 in - ESE 4.6 mph - N/A   Clear
9:55 AM 26.6 °F 21.2 °F 3.2 °F 37% 30.24 in - SW 4.6 mph - N/A   Clear
10:00 AM 27 °F - 3 °F 22%  in 47 mi SW 4.6 mph - -  
10:55 AM 28.4 °F 22.2 °F 5.0 °F 37% 30.24 in - WSW 5.8 mph - N/A   Clear
11:55 AM 28.4 °F 23.3 °F 5.0 °F 37% 30.24 in - WSW 4.6 mph - N/A   Clear
12:55 PM 28.4 °F 23.3 °F 5.0 °F 37% 30.24 in - WSW 4.6 mph - N/A   Clear
1:00 PM 28 °F - 4 °F 22%  in 47 mi WSW 4.6 mph - -  
1:55 PM 30.2 °F 25.4 °F 1.4 °F 29% 30.21 in - ENE 4.6 mph - N/A   Clear
2:55 PM 26.6 °F 20.0 °F -2.2 °F 29% 30.21 in - ENE 5.8 mph - N/A   Clear
3:55 PM 26.6 °F 21.2 °F -2.2 °F 29% 30.18 in - ENE 4.6 mph - N/A   Clear
4:55 PM 24.8 °F 17.9 °F -2.2 °F 31% 30.18 in - ENE 5.8 mph - N/A   Clear
5:55 PM 24.8 °F - 1.4 °F 36% 30.18 in - Variable 2.3 mph - N/A   Clear
6:55 PM 23.0 °F 18.4 °F 1.4 °F 39% 30.18 in - Variable 3.5 mph - N/A   Clear
7:00 PM 24 °F - 1 °F 22%  in 12 mi 3.5 mph - -  
7:55 PM 24.8 °F - -0.4 °F 34% 30.18 in - Variable 2.3 mph - N/A   Unknown
8:55 PM 24.8 °F 19.1 °F 1.4 °F 36% 30.18 in - East 4.6 mph - N/A   Clear
10:55 PM 23.0 °F 18.4 °F 3.2 °F 43% 30.18 in - WSW 3.5 mph - N/A   Clear
11:55 PM 21.2 °F 16.4 °F 8.6 °F 58% 30.18 in - SW 3.5 mph - N/A   Clear